When you browse on this site, cookies collect data to enhance your experience and personalize the content and advertising you see.
Visit our Privacy Policy to learn more. By continuing to use the site, you agree to this use of cookies and data.
  • în România
  • Lista ţărilor
  • Pe 7 zile
  • Temperatura apei
  • Meteo pe hartă
  • Widget-uri
  • user-avatar
    Intrare

    Meteo pe oră la Shillong

    Astăzi, 6 Aprilie, Luni

    Timp Temperatura Precipitaţii Vânt Presiune Umiditate
    00:00 +15°C° 0 mm 1 m/s 632 mmHg 32%
    01:00 +15°C° 0 mm 2 m/s 632 mmHg 30%
    02:00 +14°C° 0 mm 2 m/s 631 mmHg 27%
    03:00 +14°C° 0 mm 2 m/s 631 mmHg 25%
    04:00 +14°C° 0 mm 2 m/s 631 mmHg 25%
    05:00 +14°C° 0 mm 2 m/s 631 mmHg 25%
    06:00 +14°C° 0 mm 2 m/s 632 mmHg 27%
    07:00 +17°C° 0 mm 2 m/s 633 mmHg 25%
    08:00 +20°C° 0 mm 2 m/s 634 mmHg 22%
    09:00 +22°C° 0 mm 3 m/s 635 mmHg 20%
    10:00 +25°C° 0 mm 3 m/s 635 mmHg 19%
    11:00 +26°C° 0 mm 3 m/s 635 mmHg 18%
    12:00 +26°C° 0 mm 2 m/s 636 mmHg 20%
    13:00 +26°C° 0 mm 3 m/s 635 mmHg 22%
    14:00 +25°C° 0 mm 3 m/s 634 mmHg 24%
    15:00 +25°C° 0 mm 3 m/s 633 mmHg 27%
    16:00 +23°C° 0 mm 2 m/s 632 mmHg 30%
    17:00 +21°C° 0 mm 2 m/s 631 mmHg 33%
    18:00 +19°C° 0 mm 1 m/s 631 mmHg 41%
    19:00 +19°C° 0 mm 1 m/s 631 mmHg 41%
    20:00 +18°C° 0 mm 1 m/s 631 mmHg 40%
    21:00 +16°C° 0 mm 1 m/s 631 mmHg 40%
    22:00 +16°C° 0 mm 1 m/s 631 mmHg 38%
    23:00 +16°C° 0 mm 1 m/s 631 mmHg 37%

    Mâine, 7 Aprilie, Marţi

    Timp Temperatura Precipitaţii Vânt Presiune Umiditate
    00:00 +15°C° 0 mm 1 m/s 630 mmHg 35%
    01:00 +15°C° 0 mm 1 m/s 630 mmHg 35%
    02:00 +15°C° 0 mm 2 m/s 630 mmHg 34%
    03:00 +15°C° 0 mm 2 m/s 629 mmHg 33%
    04:00 +15°C° 0 mm 2 m/s 629 mmHg 36%
    05:00 +15°C° 0 mm 2 m/s 630 mmHg 38%
    06:00 +15°C° 0 mm 2 m/s 630 mmHg 40%
    07:00 +17°C° 0 mm 3 m/s 631 mmHg 37%
    08:00 +20°C° 0 mm 3 m/s 633 mmHg 34%
    09:00 +24°C° 0 mm 3 m/s 634 mmHg 32%
    10:00 +25°C° 0 mm 3 m/s 634 mmHg 29%
    11:00 +26°C° 0 mm 3 m/s 634 mmHg 26%
    12:00 +27°C° 0 mm 4 m/s 634 mmHg 24%
    13:00 +27°C° 0 mm 4 m/s 633 mmHg 23%
    14:00 +27°C° 0 mm 4 m/s 632 mmHg 23%
    15:00 +27°C° 0 mm 4 m/s 632 mmHg 22%
    16:00 +25°C° 0 mm 3 m/s 631 mmHg 25%
    17:00 +24°C° 0 mm 2 m/s 630 mmHg 28%
    18:00 +22°C° 0 mm 1 m/s 629 mmHg 31%
    19:00 +21°C° 0 mm 1 m/s 630 mmHg 28%
    20:00 +19°C° 0 mm 2 m/s 630 mmHg 24%
    21:00 +18°C° 0 mm 2 m/s 630 mmHg 21%
    22:00 +17°C° 0 mm 2 m/s 630 mmHg 21%
    23:00 +17°C° 0 mm 2 m/s 630 mmHg 21%

    Poimâine, 8 Aprilie, Miercuri

    Timp Temperatura Precipitaţii Vânt Presiune Umiditate
    00:00 +16°C° 0 mm 2 m/s 630 mmHg 21%
    01:00 +16°C° 0 mm 2 m/s 630 mmHg 25%
    02:00 +16°C° 0 mm 2 m/s 630 mmHg 28%
    03:00 +15°C° 0 mm 2 m/s 629 mmHg 31%
    04:00 +15°C° 0 mm 2 m/s 630 mmHg 41%
    05:00 +15°C° 0 mm 2 m/s 630 mmHg 50%
    06:00 +15°C° 0 mm 2 m/s 630 mmHg 60%
    07:00 +18°C° 0 mm 2 m/s 632 mmHg 49%
    08:00 +21°C° 0 mm 2 m/s 633 mmHg 39%
    09:00 +25°C° 0 mm 2 m/s 634 mmHg 28%
    10:00 +26°C° 0 mm 3 m/s 635 mmHg 25%
    11:00 +28°C° 0 mm 3 m/s 635 mmHg 22%
    12:00 +29°C° 0 mm 4 m/s 635 mmHg 18%
    13:00 +29°C° 0 mm 4 m/s 634 mmHg 20%
    14:00 +28°C° 0 mm 4 m/s 633 mmHg 21%
    15:00 +28°C° 0 mm 4 m/s 632 mmHg 22%
    16:00 +26°C° 0 mm 3 m/s 631 mmHg 27%
    17:00 +25°C° 0 mm 2 m/s 631 mmHg 31%
    18:00 +23°C° 0 mm 1 m/s 630 mmHg 35%
    19:00 +21°C° 0 mm 2 m/s 630 mmHg 34%
    20:00 +20°C° 0 mm 2 m/s 631 mmHg 33%
    21:00 +19°C° 0 mm 2 m/s 631 mmHg 32%
    22:00 +19°C° 0.1 mm 2 m/s 631 mmHg 40%
    23:00 +18°C° 0.1 mm 2 m/s 631 mmHg 48%

    9 Aprilie, Joi

    Timp Temperatura Precipitaţii Vânt Presiune Umiditate
    00:00 +18°C° 0.1 mm 2 m/s 631 mmHg 56%
    01:00 +18°C° 0 mm 2 m/s 631 mmHg 56%
    02:00 +17°C° 0 mm 2 m/s 631 mmHg 56%
    03:00 +17°C° 0 mm 2 m/s 631 mmHg 56%
    04:00 +17°C° 0 mm 2 m/s 631 mmHg 58%
    05:00 +16°C° 0 mm 2 m/s 631 mmHg 61%
    06:00 +16°C° 0 mm 1 m/s 631 mmHg 63%
    07:00 +19°C° 0 mm 2 m/s 632 mmHg 54%
    08:00 +23°C° 0 mm 2 m/s 633 mmHg 44%
    09:00 +26°C° 0 mm 3 m/s 635 mmHg 35%
    10:00 +27°C° 0 mm 3 m/s 635 mmHg 31%
    11:00 +28°C° 0 mm 4 m/s 634 mmHg 28%
    12:00 +29°C° 0 mm 4 m/s 634 mmHg 24%
    13:00 +29°C° 0 mm 4 m/s 634 mmHg 24%
    14:00 +28°C° 0 mm 4 m/s 633 mmHg 24%
    15:00 +28°C° 0 mm 4 m/s 632 mmHg 24%
    16:00 +26°C° 0.1 mm 3 m/s 631 mmHg 31%
    17:00 +24°C° 0.1 mm 2 m/s 631 mmHg 38%
    18:00 +22°C° 0.1 mm 1 m/s 630 mmHg 45%
    19:00 +20°C° 0 mm 2 m/s 630 mmHg 46%
    20:00 +19°C° 0 mm 2 m/s 631 mmHg 47%
    21:00 +18°C° 0 mm 2 m/s 632 mmHg 48%
    22:00 +18°C° 0 mm 3 m/s 632 mmHg 55%
    23:00 +17°C° 0 mm 3 m/s 632 mmHg 62%

    10 Aprilie, Vineri

    Timp Temperatura Precipitaţii Vânt Presiune Umiditate
    00:00 +17°C° 0 mm 3 m/s 632 mmHg 69%
    01:00 +16°C° 0 mm 2 m/s 631 mmHg 69%
    02:00 +16°C° 0 mm 2 m/s 631 mmHg 68%
    03:00 +16°C° 0 mm 1 m/s 631 mmHg 68%
    04:00 +15°C° 0 mm 1 m/s 631 mmHg 68%
    05:00 +15°C° 0 mm 1 m/s 631 mmHg 68%
    06:00 +15°C° 0 mm 1 m/s 631 mmHg 69%
    07:00 +18°C° 0.1 mm 1 m/s 633 mmHg 59%
    08:00 +21°C° 0.1 mm 1 m/s 634 mmHg 50%
    09:00 +24°C° 0.1 mm 1 m/s 636 mmHg 41%
    10:00 +25°C° 0.1 mm 2 m/s 636 mmHg 38%
    11:00 +26°C° 0.1 mm 3 m/s 635 mmHg 35%
    12:00 +27°C° 0.1 mm 3 m/s 635 mmHg 32%
    13:00 +26°C° 0 mm 3 m/s 634 mmHg 33%
    14:00 +26°C° 0 mm 3 m/s 634 mmHg 34%
    15:00 +25°C° 0 mm 3 m/s 633 mmHg 36%
    16:00 +24°C° 0 mm 3 m/s 632 mmHg 40%
    17:00 +23°C° 0 mm 2 m/s 632 mmHg 44%
    18:00 +22°C° 0 mm 1 m/s 631 mmHg 48%
    19:00 +20°C° 0 mm 2 m/s 632 mmHg 48%
    20:00 +20°C° 0 mm 2 m/s 632 mmHg 48%
    21:00 +19°C° 0 mm 2 m/s 633 mmHg 48%
    22:00 +18°C° 0 mm 2 m/s 633 mmHg 48%
    23:00 +18°C° 0 mm 2 m/s 632 mmHg 49%

    11 Aprilie, Sâmbătă

    Timp Temperatura Precipitaţii Vânt Presiune Umiditate
    00:00 +17°C° 0 mm 2 m/s 632 mmHg 50%
    01:00 +17°C° 0.2 mm 2 m/s 632 mmHg 57%
    02:00 +16°C° 0.2 mm 2 m/s 632 mmHg 65%
    03:00 +16°C° 0.2 mm 2 m/s 632 mmHg 72%
    04:00 +15°C° 0.2 mm 2 m/s 632 mmHg 74%
    05:00 +15°C° 0.2 mm 1 m/s 632 mmHg 76%
    06:00 +15°C° 0.2 mm 1 m/s 632 mmHg 79%
    07:00 +17°C° 0.2 mm 2 m/s 634 mmHg 68%
    08:00 +20°C° 0.2 mm 2 m/s 635 mmHg 58%
    09:00 +24°C° 0.2 mm 2 m/s 636 mmHg 47%
    10:00 +25°C° 0.4 mm 3 m/s 636 mmHg 42%
    11:00 +26°C° 0.4 mm 4 m/s 636 mmHg 38%
    12:00 +27°C° 0.4 mm 4 m/s 636 mmHg 33%
    13:00 +27°C° 0.2 mm 4 m/s 635 mmHg 36%
    14:00 +26°C° 0.2 mm 4 m/s 634 mmHg 39%
    15:00 +25°C° 0.2 mm 4 m/s 632 mmHg 42%
    16:00 +22°C° 0.9 mm 4 m/s 631 mmHg 52%
    17:00 +19°C° 0.9 mm 3 m/s 631 mmHg 61%
    18:00 +17°C° 0.9 mm 2 m/s 630 mmHg 70%
    19:00 +16°C° 0.5 mm 2 m/s 630 mmHg 73%
    20:00 +16°C° 0.5 mm 2 m/s 631 mmHg 76%
    21:00 +15°C° 0.5 mm 2 m/s 632 mmHg 79%
    22:00 +15°C° 0.4 mm 2 m/s 632 mmHg 80%
    23:00 +15°C° 0.4 mm 2 m/s 632 mmHg 82%
    Arată mai mult